Wind_Speed
11 10 7 6 8 10 11 11 11 11 11 12 12 12 12 13 14 15 16 16 16 17 18 18 18 16 15 14 14 13 12 12 12 12 12 12 12 11 9 9 11 12
11 10 7 6 8 10 11 11 11 12 12 12 12 13 14 15 15 16 16 17 17 18 18 18 18 17 16 15 15 13 12 12 11 10 10 10 10 10 9 9 10 11
11 10 9 7 8 10 11 11 12 13 13 12 13 15 16 16 16 16 16 17 17 17 16 17 17 17 17 16 14 12 12 11 10 9 9 9 9 9 8 8 9 10
11 11 10 8 8 9 11 12 14 15 14 13 14 16 16 16 16 16 15 16 15 14 14 15 16 16 16 15 13 12 11 10 9 8 8 8 7 7 7 8 9 9
11 11 10 9 9 9 11 14 16 16 15 14 14 15 16 16 15 15 14 14 13 13 13 14 14 14 14 14 13 12 10 9 8 8 8 8 7 7 7 8 8 9
11 11 10 10 9 10 11 14 16 16 15 14 14 15 15 15 14 14 13 14 13 13 13 14 15 14 14 14 13 11 10 9 9 9 9 8 8 7 8 8 8 9
12 11 11 11 11 10 11 13 15 16 16 15 15 15 15 14 14 13 13 13 13 14 14 15 15 15 14 14 13 11 11 11 10 10 10 10 9 9 9 9 10 11
13 12 11 11 12 11 11 13 15 16 17 17 16 15 15 14 14 13 13 13 13 14 14 15 16 16 16 15 14 13 12 12 12 11 10 10 11 11 11 11 11 12
13 12 12 11 12 12 12 14 15 17 19 18 17 16 15 14 14 14 13 13 13 14 14 15 15 16 16 16 15 14 13 13 12 12 11 11 12 12 12 11 12 12
16 16 15 13 13 13 13 15 16 18 20 20 19 17 15 14 15 14 14 14 14 13 14 15 15 15 16 15 15 14 13 12 11 11 11 11 11 11 11 12 12 12
18 18 18 16 16 17 18 17 17 18 20 21 21 19 17 16 15 15 16 15 14 13 13 14 15 16 16 15 14 14 13 12 12 11 11 11 11 11 12 13 13 13
16 17 19 19 19 20 21 20 18 18 20 22 24 22 19 17 17 17 16 15 14 14 14 15 16 17 17 16 16 15 15 14 13 12 12 12 12 13 13 13 13 14
19 19 19 19 18 20 22 23 21 20 21 23 25 25 22 20 19 17 16 16 16 17 17 16 16 17 18 18 17 17 17 17 15 15 15 14 14 15 15 14 14 15
22 23 23 22 19 20 24 26 26 24 22 24 26 26 23 22 21 18 17 18 19 20 19 17 17 18 18 18 19 19 19 19 18 18 17 15 16 17 16 15 16 16
21 23 26 25 23 22 23 25 27 25 24 25 27 26 25 24 21 19 20 20 21 22 21 19 19 20 20 20 20 21 21 21 20 19 18 17 18 19 18 18 18 18
21 22 24 25 25 25 24 24 27 26 25 27 28 28 27 25 21 21 22 22 22 23 22 21 22 23 23 22 23 23 22 22 21 21 20 19 19 20 19 19 19 20
23 23 23 24 26 26 24 24 27 27 26 28 29 30 29 25 23 24 24 22 22 23 23 23 24 25 25 25 25 24 23 23 23 23 23 22 21 20 20 20 21 21
26 26 25 24 25 27 26 26 28 29 29 29 31 32 29 26 26 27 26 23 22 23 24 24 24 25 26 27 27 26 25 25 25 25 25 23 22 21 21 22 22 21
26 26 26 26 26 27 28 29 30 31 31 32 33 32 29 28 29 29 27 24 23 24 25 25 25 25 26 27 28 27 26 26 26 26 25 24 23 23 23 23 22 22
28 26 27 28 27 27 28 31 33 34 35 35 33 31 29 30 31 31 29 26 24 25 26 26 26 27 27 28 28 28 27 27 27 27 26 25 25 26 25 24 23 23
28 26 26 27 28 27 27 30 32 34 37 35 31 29 29 30 32 32 31 29 27 26 27 27 27 28 28 29 29 29 29 28 28 28 27 27 27 28 26 25 24 24
28 27 26 28 29 28 28 29 31 35 36 34 32 30 30 31 33 34 34 31 30 29 28 28 29 29 29 30 30 31 31 31 29 29 28 28 29 29 27 26 25 25
27 28 28 29 29 30 31 31 32 35 36 35 35 34 32 32 34 36 35 34 33 32 31 30 31 31 32 32 32 33 34 34 32 30 30 31 31 30 29 28 27 27
26 28 30 32 31 30 32 33 34 37 37 34 35 35 33 33 34 36 36 35 35 34 32 32 33 34 34 35 36 36 36 37 35 33 33 33 33 32 32 31 30 29
28 30 33 36 35 33 35 36 36 38 39 36 35 37 35 33 34 36 36 36 36 35 33 33 34 35 35 35 35 35 36 37 36 35 35 35 33 33 32 32 31 31
27 29 30 33 35 35 37 39 39 40 41 39 37 38 35 32 32 34 33 34 36 36 34 32 32 34 34 33 32 33 34 36 36 35 35 35 34 33 33 33 33 33
Wind_Direction
283 289 282 269 271 270 262 257 249 234 229 232 233 237 241 243 239 233 232 232 230 229 228 230 232 237 245 252 255 253 252 252 250 245 243 243 240 237 232 229 227 224
276 283 278 260 260 265 262 257 250 242 239 241 244 248 249 245 241 237 235 234 233 231 230 233 236 238 244 252 257 255 250 251 249 241 237 235 232 232 227 221 224 225
268 275 273 258 250 255 259 255 250 249 248 249 251 251 250 246 242 238 235 235 235 233 232 235 239 242 247 252 254 249 243 241 240 238 240 240 236 232 224 216 219 223
260 269 272 262 248 247 252 250 248 247 246 245 246 246 245 242 240 238 237 237 238 237 236 239 242 246 249 249 246 241 239 235 235 240 242 234 228 223 215 213 217 219
258 267 272 266 251 244 247 249 248 246 243 239 240 242 242 242 243 243 244 246 246 243 242 244 248 250 250 248 243 241 243 239 237 243 238 222 215 212 204 203 212 218
254 262 270 268 256 246 245 249 250 249 246 243 242 243 243 246 248 248 250 253 253 250 248 248 251 251 248 244 242 241 244 242 236 235 234 228 221 214 205 202 209 218
244 252 264 269 264 255 248 251 254 255 253 249 244 243 244 248 250 251 251 252 253 252 250 249 249 249 244 238 238 240 240 240 238 232 230 232 230 224 218 217 219 223
233 244 258 269 271 266 258 257 260 261 260 253 244 241 243 248 252 254 252 251 252 251 250 249 246 245 241 235 236 239 239 239 240 236 230 230 233 233 232 232 229 227
230 246 255 263 269 268 266 266 266 267 264 256 246 241 244 250 254 255 254 252 251 250 250 247 241 239 239 238 237 239 238 237 238 238 235 232 234 237 238 237 233 230
233 242 246 249 251 253 260 265 266 268 267 260 252 247 247 251 253 253 252 251 250 249 246 243 239 239 241 241 239 237 233 230 231 234 237 238 239 240 240 240 239 238
243 245 244 245 244 244 251 254 254 259 264 263 257 253 251 251 250 250 249 250 250 247 244 240 238 240 240 238 236 232 229 227 228 231 237 241 242 240 239 240 243 243
254 258 256 254 253 253 251 248 245 247 255 260 259 255 253 251 249 248 247 249 249 246 242 238 237 237 236 233 231 231 233 235 239 243 244 244 244 243 241 241 243 243
259 261 263 263 260 257 252 247 245 244 247 254 256 255 253 252 251 249 246 245 246 246 245 241 240 239 236 233 232 236 242 246 252 256 254 250 247 246 244 241 241 240
262 258 263 267 264 259 253 248 244 242 243 248 252 254 253 253 252 250 246 242 241 245 246 246 245 244 240 237 236 240 247 251 256 259 258 255 251 250 247 244 242 240
271 267 266 267 264 260 255 247 240 237 239 244 248 251 253 253 253 251 249 244 239 241 245 247 248 247 244 241 240 241 246 251 254 256 256 254 252 252 250 247 246 245
278 278 272 265 260 259 258 248 238 234 237 242 245 248 251 253 253 250 251 248 240 239 242 243 245 246 246 244 243 244 246 249 252 254 254 252 252 253 253 250 250 249
278 277 275 268 260 258 258 251 239 234 238 242 243 246 249 251 251 250 252 250 243 239 240 242 244 245 247 248 247 248 248 251 252 253 254 253 253 255 255 252 251 252
278 275 273 270 262 254 252 253 246 239 238 241 243 245 247 249 250 251 252 250 245 241 242 245 246 247 248 249 250 251 251 253 254 255 255 255 254 254 253 252 252 253
276 274 270 266 262 254 250 255 254 244 236 237 241 244 246 248 249 251 252 251 248 244 243 245 247 248 248 249 250 251 252 254 255 256 256 256 255 253 251 250 249 249
270 271 268 263 261 256 250 254 257 246 233 233 239 244 246 247 249 250 250 250 248 244 242 243 245 246 248 249 250 251 252 253 255 257 257 257 256 254 253 252 250 249
267 267 266 261 260 257 251 252 253 241 228 229 238 245 247 248 248 249 248 247 247 245 243 242 243 245 247 249 251 252 252 252 254 256 257 256 255 256 255 254 252 251
268 265 262 259 258 256 252 250 244 232 229 236 245 250 250 248 247 247 248 247 246 245 244 243 243 244 246 250 253 255 254 253 253 254 255 254 254 256 256 253 251 251
267 261 259 262 264 259 253 249 239 229 233 244 250 250 250 248 245 246 247 247 246 245 244 244 245 246 249 253 256 258 258 256 253 252 252 251 251 252 253 251 250 250
254 249 250 255 260 256 250 246 237 227 230 242 247 245 246 245 243 244 246 247 247 247 245 246 249 251 253 255 257 258 259 257 253 250 249 249 249 250 251 252 251 251
245 241 238 238 239 238 237 237 232 226 230 243 248 244 244 244 241 242 246 248 250 250 248 247 251 253 255 256 257 257 256 252 249 248 249 250 252 252 254 255 256 256
262 253 244 238 235 234 231 227 223 224 234 245 246 241 242 245 242 242 246 249 250 251 249 249 252 253 252 251 251 250 249 247 247 246 247 250 252 252 253 255 257 258
Height
5771 5771 5772 5772 5772 5773 5773 5774 5775 5777 5778 5779 5780 5781 5781 5782 5782 5783 5783 5784 5784 5785 5784 5784 5784 5785 5785 5786 5787 5788 5790 5792 5793 5794 5794 5795 5795 5796 5796 5797 5797 5798
5770 5770 5770 5771 5771 5771 5772 5773 5774 5775 5776 5777 5778 5778 5779 5780 5781 5781 5782 5782 5782 5783 5783 5782 5782 5783 5784 5784 5785 5787 5788 5789 5791 5792 5792 5793 5793 5794 5795 5795 5796 5796
5768 5769 5769 5769 5770 5770 5771 5771 5772 5772 5773 5774 5775 5776 5777 5778 5779 5780 5780 5780 5780 5780 5781 5780 5780 5781 5782 5783 5784 5785 5786 5787 5788 5789 5790 5791 5792 5792 5793 5794 5794 5795
5766 5767 5767 5768 5768 5769 5770 5771 5771 5771 5772 5773 5774 5775 5776 5777 5777 5778 5777 5777 5777 5778 5778 5778 5778 5778 5780 5781 5782 5783 5784 5785 5786 5787 5789 5790 5790 5791 5792 5792 5793 5794
5764 5765 5766 5766 5767 5767 5769 5769 5770 5770 5771 5771 5772 5773 5774 5774 5774 5775 5774 5774 5774 5775 5775 5775 5775 5776 5777 5779 5780 5780 5781 5783 5785 5785 5787 5788 5789 5790 5790 5791 5792 5792
5761 5763 5764 5765 5765 5766 5767 5768 5768 5769 5769 5769 5770 5770 5771 5771 5771 5772 5772 5772 5772 5772 5773 5773 5773 5774 5776 5776 5777 5778 5779 5780 5783 5784 5784 5786 5787 5788 5789 5790 5791 5791
5758 5760 5761 5762 5763 5764 5764 5765 5766 5767 5767 5767 5767 5767 5768 5768 5768 5769 5769 5770 5770 5771 5771 5771 5771 5772 5774 5775 5776 5777 5778 5779 5781 5782 5783 5784 5785 5787 5788 5788 5789 5790
5755 5756 5758 5760 5761 5762 5762 5762 5763 5765 5765 5765 5765 5765 5765 5766 5766 5767 5768 5768 5769 5769 5769 5769 5770 5770 5772 5774 5775 5776 5777 5777 5778 5780 5781 5782 5783 5784 5785 5786 5787 5788
5752 5754 5755 5757 5759 5759 5760 5760 5761 5762 5763 5764 5764 5764 5764 5764 5764 5765 5766 5766 5767 5767 5767 5768 5768 5769 5770 5772 5773 5774 5775 5776 5776 5777 5779 5780 5781 5782 5783 5783 5784 5785
5749 5751 5752 5754 5756 5756 5757 5758 5759 5760 5761 5762 5763 5762 5762 5762 5762 5763 5764 5764 5765 5766 5766 5766 5767 5767 5768 5769 5771 5772 5773 5774 5775 5776 5777 5778 5779 5780 5781 5781 5782 5783
5748 5749 5750 5752 5752 5753 5753 5754 5755 5757 5758 5760 5761 5761 5760 5760 5760 5761 5761 5763 5764 5764 5764 5764 5765 5765 5766 5767 5768 5769 5771 5772 5773 5775 5775 5776 5777 5778 5778 5779 5780 5780
5747 5748 5749 5750 5750 5750 5751 5751 5752 5753 5755 5757 5758 5759 5759 5758 5758 5759 5760 5761 5762 5761 5761 5761 5762 5763 5764 5765 5766 5767 5768 5769 5771 5773 5773 5775 5775 5776 5777 5778 5778 5779
5745 5746 5746 5747 5747 5747 5748 5749 5750 5750 5752 5754 5755 5756 5756 5756 5756 5757 5758 5758 5758 5758 5758 5759 5760 5761 5762 5763 5764 5765 5765 5766 5768 5769 5771 5772 5773 5773 5775 5776 5776 5777
5742 5743 5743 5743 5744 5744 5744 5745 5746 5748 5749 5750 5751 5752 5753 5753 5753 5754 5754 5755 5755 5755 5756 5757 5758 5759 5760 5762 5763 5764 5764 5765 5766 5767 5768 5770 5770 5770 5772 5773 5774 5774
5738 5740 5740 5740 5740 5739 5739 5740 5742 5744 5746 5746 5747 5748 5749 5749 5751 5751 5750 5751 5751 5752 5754 5756 5757 5757 5758 5759 5760 5761 5762 5763 5763 5764 5765 5767 5767 5767 5769 5770 5771 5771
5734 5735 5736 5736 5735 5735 5736 5737 5738 5741 5743 5742 5743 5744 5744 5747 5749 5748 5747 5747 5748 5750 5751 5753 5754 5755 5755 5756 5757 5758 5759 5760 5761 5761 5762 5764 5764 5765 5766 5767 5768 5768
5730 5730 5731 5732 5731 5731 5733 5734 5736 5739 5739 5739 5739 5740 5741 5744 5746 5744 5744 5744 5745 5747 5748 5750 5751 5752 5753 5754 5754 5755 5757 5758 5758 5758 5759 5760 5761 5762 5763 5764 5764 5765
5726 5726 5727 5727 5728 5728 5730 5731 5733 5735 5736 5735 5736 5737 5739 5742 5741 5740 5741 5742 5743 5744 5745 5746 5748 5749 5750 5751 5751 5752 5753 5754 5755 5755 5756 5757 5759 5759 5760 5760 5761 5762
5724 5724 5724 5723 5724 5725 5727 5728 5729 5731 5732 5732 5733 5735 5737 5738 5738 5737 5739 5740 5740 5741 5742 5743 5744 5745 5746 5747 5748 5749 5750 5751 5752 5752 5753 5754 5755 5756 5756 5756 5758 5759
5720 5721 5720 5720 5720 5722 5723 5724 5725 5726 5727 5728 5730 5732 5734 5734 5734 5735 5736 5737 5737 5738 5738 5739 5740 5742 5743 5743 5744 5746 5747 5748 5748 5749 5750 5751 5752 5752 5753 5754 5755 5756
5716 5717 5718 5717 5718 5719 5720 5721 5720 5721 5722 5725 5727 5729 5730 5730 5731 5732 5733 5734 5734 5735 5736 5737 5737 5738 5739 5740 5741 5742 5743 5744 5745 5746 5747 5748 5748 5748 5750 5751 5752 5752
5712 5713 5714 5715 5715 5716 5717 5717 5717 5717 5719 5721 5723 5725 5726 5727 5728 5728 5729 5730 5731 5731 5732 5734 5734 5735 5736 5737 5738 5738 5739 5741 5742 5743 5744 5745 5745 5746 5747 5748 5749 5749
5708 5708 5709 5710 5711 5712 5713 5713 5714 5715 5716 5717 5719 5720 5722 5723 5724 5724 5726 5727 5727 5728 5729 5730 5731 5732 5733 5734 5734 5735 5735 5736 5738 5740 5740 5741 5741 5742 5742 5743 5745 5745
5704 5704 5705 5705 5706 5707 5708 5709 5710 5712 5712 5713 5715 5716 5718 5719 5720 5721 5722 5723 5724 5725 5726 5727 5728 5729 5729 5730 5730 5731 5731 5732 5734 5736 5736 5736 5737 5737 5738 5739 5740 5741
5700 5700 5701 5702 5702 5703 5704 5704 5706 5707 5708 5709 5711 5712 5714 5716 5717 5717 5718 5719 5720 5722 5723 5724 5725 5725 5725 5726 5726 5727 5727 5728 5730 5731 5732 5732 5733 5734 5734 5735 5736 5736
5694 5695 5697 5698 5699 5699 5699 5700 5701 5702 5703 5705 5706 5708 5710 5712 5713 5714 5715 5716 5717 5718 5719 5720 5721 5721 5721 5722 5723 5723 5723 5724 5725 5727 5728 5728 5729 5730 5731 5731 5731 5732